Location: UMBC
(39.2555°N, 76.7093°W)
Time: 15:42:35
(UTC+02:00)

Amateur Radio Satellites - All Passes

Search period start: 26 August 2016 15:12
Search period end: 27 August 2016 15:12
Location: UMBC, 39.2555°N, 76.7093°W

Satellite Date Start Highest point End Downlink Frequencies (MHz)
Time Altitude Azimuth
Cubesat XI-IV 26 Aug 15:15:05 15:17:23 13° 300° (WNW) 15:19:40 437.490
PRISM 26 Aug 15:15:38 15:19:41 70° 258° (WSW) 15:23:48 437.425
YUBILEINY 26 Aug 15:17:42 15:23:12 18° 297° (WNW) 15:28:44 435.215
SO-50 26 Aug 15:19:45 15:24:21 67° 57° (ENE) 15:28:48 436.795
CUSAT 1 26 Aug 15:21:56 15:24:57 13° 68° (ENE) 15:28:11 437.405
AAUSAT CUBESAT 2 26 Aug 15:23:57 15:27:59 47° 99° (E) 15:32:00 437.432
CINEMA 3 26 Aug 15:27:24 15:31:45 44° 288° (WNW) 15:35:53 145.822/145.860
AIST 1 26 Aug 15:27:48 15:31:44 35° 91° (E) 15:35:43
COMPASS 1 26 Aug 15:30:08 15:34:19 73° 102° (ESE) 15:38:30 437.405
UNISAT 6 26 Aug 15:34:14 15:37:24 19° 67° (ENE) 15:40:33 437.425
RS-15 26 Aug 15:35:00 15:46:16 38° 39° (NE) 15:57:23 29.354- 29.394
BEESAT 3 26 Aug 15:37:42 15:40:25 18° 111° (ESE) 15:43:10 437.485
DELFI C3 26 Aug 15:44:43 15:45:58 11° 91° (E) 15:47:12 145.870
Oscar 11 26 Aug 15:51:08 15:55:07 36° 98° (E) 15:59:06 145.826/435.025
FUNcube-1 26 Aug 15:56:16 16:00:08 37° 98° (E) 16:03:58 145.935
CUBEBUG 2 26 Aug 15:56:49 16:01:05 77° 283° (WNW) 16:05:13 437.445
UWE-3 26 Aug 15:58:06 16:02:19 71° 102° (ESE) 16:06:25 435.000/436.395/437.385
ANTELSAT 26 Aug 16:09:53 16:14:15 43° 72° (ENE) 16:18:33 437.575/2403.000
ISS 26 Aug 16:11:46 16:15:00 54° 326° (NW) 16:18:14 145.825
ZACube-1 26 Aug 16:16:35 16:20:45 73° 102° (ESE) 16:24:52 437.345
SEEDS 26 Aug 16:24:08 16:27:08 19° 292° (WNW) 16:30:08 437.485
Cosmos 2504 26 Aug 16:38:08 16:41:24 13° 298° (WNW) 16:44:37 435.465 / 435.565
POPSAT HIP 1 26 Aug 16:39:47 16:41:34 12° 64° (ENE) 16:43:23 437.405
TIGRISAT 26 Aug 16:41:00 16:45:39 89° 74° (ENE) 16:50:13 435.000
HO-68 26 Aug 16:46:43 16:52:20 26° 300° (WNW) 16:57:55 435.675
BEESAT 2 26 Aug 16:52:15 16:56:09 67° 118° (ESE) 17:00:06 435.950
AAUSAT CUBESAT 2 26 Aug 17:00:52 17:03:03 14° 295° (WNW) 17:05:14 437.432
CUSAT 1 26 Aug 17:01:06 17:07:27 79° 80° (E) 17:15:10 437.405
SO-50 26 Aug 17:02:27 17:04:11 12° 253° (WSW) 17:05:55 436.795
AIST 1 26 Aug 17:06:27 17:09:26 18° 288° (WNW) 17:12:27
QB50P2 26 Aug 17:07:41 17:11:17 27° 70° (ENE) 17:14:54 145.880/145.840
DUCHIFAT 1 26 Aug 17:07:47 17:11:05 22° 68° (ENE) 17:14:24 145.980
UNISAT 6 26 Aug 17:09:24 17:13:48 42° 261° (W) 17:18:09 437.425
POLYITAN 1 26 Aug 17:10:11 17:13:49 27° 69° (ENE) 17:17:26 437.675
BEESAT 3 26 Aug 17:14:13 17:17:49 34° 307° (NW) 17:21:28 437.485
DELFI C3 26 Aug 17:17:11 17:21:05 50° 286° (WNW) 17:24:57 145.870
HUMSAT D 26 Aug 17:17:33 17:21:38 71° 102° (ESE) 17:25:42 437.325/437.525
NANOSAT C BR1 26 Aug 17:20:10 17:23:59 33° 70° (ENE) 17:27:48 145.865
Oscar 11 26 Aug 17:27:58 17:30:59 19° 293° (WNW) 17:33:59 145.826/435.025
JAS-2 26 Aug 17:31:03 17:35:08 24° 64° (ENE) 17:39:24 435.910
ESTCUBE 1 26 Aug 17:32:35 17:35:25 16° 93° (E) 17:38:13 437.505/2401.250
GONETS M04 26 Aug 17:33:02 17:40:11 29° 83° (E) 17:47:22
FUNcube-1 26 Aug 17:33:26 17:36:05 17° 294° (WNW) 17:38:42 145.935
DANDE 26 Aug 17:42:06 17:47:24 69° 81° (E) 17:54:21 436.750
AUBIESAT-1 26 Aug 17:42:11 17:45:19 22° 99° (E) 17:48:16 437.475
M-CUBED/EXP-1 PRIME 26 Aug 17:46:03 17:49:44 30° 101° (E) 17:53:08 437.505
RS-15 26 Aug 17:47:36 17:59:57 76° 244° (WSW) 18:11:59 29.354- 29.394
ANTELSAT 26 Aug 17:48:02 17:51:06 17° 267° (W) 17:54:09 437.575/2403.000
AISAT 26 Aug 17:48:28 17:50:26 13° 91° (E) 17:52:24 437.250
Cosmos 2499 26 Aug 17:49:38 17:56:14 28° 85° (E) 18:02:28 435.465 / 435.565
ISS 26 Aug 17:50:16 17:52:02 14° 344° (NNW) 17:53:49 145.825
QB50P1 26 Aug 18:02:42 18:06:59 75° 259° (W) 18:11:16 145.935-145.965
BUGSAT 1 26 Aug 18:08:51 18:12:54 46° 73° (ENE) 18:16:59 437.445
Oscar 19 26 Aug 18:10:49 18:12:08 11° 59° (ENE) 18:13:27 437.125/150
POPSAT HIP 1 26 Aug 18:12:38 18:16:51 58° 259° (W) 18:21:05 437.405
PCSat 26 Aug 18:22:19 18:27:36 58° 114° (ESE) 18:32:57 145.827
BEESAT 2 26 Aug 18:32:29 18:34:24 13° 317° (NW) 18:36:20 435.950
VELOX 1 26 Aug 18:34:09 18:38:22 39° 99° (E) 18:42:31 145.980
50 SAT 26 Aug 18:34:35 18:38:01 38° 99° (E) 18:41:27 437.505
CUBEBUG 1 26 Aug 18:40:19 18:44:43 58° 101° (E) 18:49:03 437.445
DUCHIFAT 1 26 Aug 18:42:53 18:46:36 29° 263° (W) 18:50:21 145.980
QB50P2 26 Aug 18:43:32 18:47:01 24° 265° (W) 18:50:31 145.880/145.840
CUSAT 1 26 Aug 18:44:50 18:49:04 18° 273° (W) 18:53:45 437.405
POLYITAN 1 26 Aug 18:46:05 18:49:33 24° 265° (W) 18:53:02 437.675
AIST 2 26 Aug 18:50:06 18:54:01 47° 117° (ESE) 18:58:00 435.215
NANOSAT C BR1 26 Aug 18:56:37 18:59:45 20° 266° (W) 19:02:53 145.865
DX 1 26 Aug 18:56:49 19:01:04 46° 100° (E) 19:05:16 434.975-435.025
SPROUT 26 Aug 19:05:28 19:09:35 44° 99° (E) 19:13:39 437.525
Gurwin Techsat 1B 26 Aug 19:06:10 19:09:39 18° 63° (ENE) 19:13:08 435.225
ESTCUBE 1 26 Aug 19:08:06 19:12:25 45° 288° (WNW) 19:16:44 437.505/2401.250
JAS-2 26 Aug 19:15:13 19:20:01 38° 263° (W) 19:25:02 435.910
AUBIESAT-1 26 Aug 19:16:18 19:19:46 27° 297° (WNW) 19:23:01 437.475
JUGNU 26 Aug 19:16:52 19:18:00 11° 177° (S) 19:19:07 437.505
M-CUBED/EXP-1 PRIME 26 Aug 19:20:54 19:24:01 21° 299° (WNW) 19:26:58 437.505
AISAT 26 Aug 19:22:51 19:27:14 55° 286° (WNW) 19:31:34 437.250
O/OREOS (USA 219) 26 Aug 19:23:56 19:25:34 12° 98° (E) 19:27:14 437.305
DANDE 26 Aug 19:26:33 19:29:59 16° 270° (W) 19:33:54 436.750
GONETS M04 26 Aug 19:27:51 19:36:24 58° 282° (WNW) 19:45:05
TISAT 1 26 Aug 19:31:14 19:34:02 17° 93° (E) 19:36:49 437.305
UKube-1 26 Aug 19:40:14 19:44:34 72° 285° (WNW) 19:48:52 .
Cosmos 2499 26 Aug 19:40:50 19:48:54 56° 281° (W) 19:56:24 435.465 / 435.565
Oscar 19 26 Aug 19:45:28 19:50:37 88° 76° (ENE) 19:55:50 437.125/150
BUGSAT 1 26 Aug 19:46:14 19:48:30 14° 268° (W) 19:50:47 437.445
RS-15 26 Aug 20:03:31 20:10:12 17° 264° (W) 20:16:52 29.354- 29.394
PCSat 26 Aug 20:07:17 20:11:23 22° 312° (NW) 20:15:32 145.827
50 SAT 26 Aug 20:09:36 20:11:15 13° 294° (WNW) 20:12:54 437.505
AO-7 26 Aug 20:10:31 20:16:32 23° 54° (NE) 20:22:34 29.400- 29.500
VELOX 1 26 Aug 20:11:23 20:14:31 19° 294° (WNW) 20:17:37 145.980
CUBEBUG 1 26 Aug 20:18:23 20:20:28 13° 297° (WNW) 20:22:33 437.445
AIST 2 26 Aug 20:29:56 20:32:45 18° 314° (NW) 20:35:36 435.215
DX 1 26 Aug 20:34:12 20:36:51 16° 295° (WNW) 20:39:29 434.975-435.025
SPROUT 26 Aug 20:42:35 20:45:09 16° 295° (WNW) 20:47:41 437.525
Gurwin Techsat 1B 26 Aug 20:43:52 20:49:05 58° 259° (W) 20:54:21 435.225
ITAMSAT 1 26 Aug 20:56:27 21:01:31 57° 72° (ENE) 21:06:36 435.822/435.867
ITUPSAT 1 26 Aug 20:57:54 21:02:03 29° 97° (E) 21:06:11 437.325
AO-85 26 Aug 20:58:27 21:02:40 56° 56° (NE) 21:06:33 145.980
O/OREOS (USA 219) 26 Aug 20:59:58 21:04:23 59° 294° (WNW) 21:08:52 437.305
ISS 26 Aug 21:04:35 21:07:09 21° 24° (NNE) 21:09:43 145.825
TISAT 1 26 Aug 21:05:55 21:09:48 36° 289° (WNW) 21:13:37 437.305
SWISSCUBE 26 Aug 21:31:22 21:36:08 76° 103° (ESE) 21:40:54 437.505
BEESAT 26 Aug 21:48:41 21:53:27 80° 286° (WNW) 21:58:12 436.000
AO-7 26 Aug 21:59:57 22:08:21 84° 253° (WSW) 22:16:45 29.400- 29.500
MOZHAYETS 4 26 Aug 22:15:07 22:19:03 28° 96° (E) 22:22:58
KKS-1 26 Aug 22:19:59 22:23:34 23° 95° (E) 22:27:06 437.445
ITUPSAT 1 26 Aug 22:35:46 22:39:47 28° 292° (WNW) 22:43:49 437.325
ITAMSAT 1 26 Aug 22:38:10 22:41:19 16° 268° (W) 22:44:29 435.822/435.867
HORYU 2 26 Aug 22:39:10 22:43:01 29° 69° (ENE) 22:46:52 437.375
SRMSAT 26 Aug 22:39:14 22:40:17 10° 183° (S) 22:41:21 437.500
ISS 26 Aug 22:40:36 22:43:50 58° 222° (SW) 22:47:03 145.825
AO-85 26 Aug 22:41:10 22:42:26 11° 254° (WSW) 22:43:41 145.980
STARS 26 Aug 22:59:30 23:03:23 30° 97° (E) 23:07:13 437.465
Cosmos 2491 26 Aug 23:11:16 23:16:06 16° 77° (ENE) 23:20:57 435.465 / 435.565
SWISSCUBE 26 Aug 23:11:33 23:13:16 12° 299° (WNW) 23:14:59 437.505
Cubesat XI-IV 26 Aug 23:16:25 23:19:32 16° 61° (ENE) 23:22:39 437.490
CUTE-I 26 Aug 23:27:54 23:31:43 20° 64° (ENE) 23:35:32 437.470
YUBILEINY 26 Aug 23:28:07 23:36:26 44° 75° (ENE) 23:44:38 435.215
CUBESAT XI-V 26 Aug 23:31:32 23:35:17 23° 94° (E) 23:39:01 437.345
NOAA 15 26 Aug 23:32:55 23:37:20 28° 67° (ENE) 23:41:47 137.62
LilacSat-2 26 Aug 23:44:08 23:46:54 19° 69° (ENE) 23:49:39 437.200
GOMX 1 26 Aug 23:46:47 23:50:59 27° 67° (ENE) 23:55:24 467.674
MOZHAYETS 4 26 Aug 23:52:18 23:56:07 27° 291° (WNW) 23:59:56
NOAA 18 26 Aug 23:55:17 00:00:13 34° 67° (ENE) 00:05:09 137.9125
KKS-1 26 Aug 23:56:13 00:00:07 30° 291° (WNW) 00:04:00 437.445
BEESAT 3 26 Aug 23:56:37 23:57:35 11° 41° (NE) 23:58:33 437.485
AO-7 26 Aug 23:57:45 00:02:10 15° 270° (W) 00:06:37 29.400- 29.500
DOVE 4 27 Aug 00:01:12 00:04:37 18° 64° (ENE) 00:08:06 437.250
BRITE-PL 27 Aug 00:03:07 00:07:52 81° 75° (ENE) 00:13:04 437.365/2234.400
HORYU 2 27 Aug 00:15:53 00:19:31 24° 264° (W) 00:23:10 437.375
Cosmos 2504 27 Aug 00:32:42 00:39:19 36° 74° (ENE) 00:45:48 435.465 / 435.565
STARS 27 Aug 00:36:05 00:39:34 23° 293° (WNW) 00:43:02 437.465
CINEMA 3 27 Aug 00:52:00 00:54:59 16° 64° (ENE) 00:57:57 145.822/145.860
Cubesat XI-IV 27 Aug 00:53:42 00:59:01 68° 258° (WSW) 01:04:21 437.490
Cosmos 2491 27 Aug 01:02:52 01:11:35 89° 96° (E) 01:20:24 435.465 / 435.565
CUTE-I 27 Aug 01:06:11 01:11:21 51° 260° (W) 01:16:33 437.470
CUBESAT XI-V 27 Aug 01:08:28 01:12:41 33° 290° (WNW) 01:16:54 437.345
BEESAT 2 27 Aug 01:11:23 01:14:55 29° 51° (NE) 01:18:25 435.950
NOAA 15 27 Aug 01:12:13 01:16:58 34° 263° (W) 01:21:45 137.62
LilacSat-2 27 Aug 01:17:41 01:21:00 27° 264° (W) 01:24:20 437.200
GOMX 1 27 Aug 01:24:16 01:28:51 36° 265° (W) 01:33:42 467.674
YUBILEINY 27 Aug 01:25:11 01:33:02 38° 274° (W) 01:40:49 435.215
HO-68 27 Aug 01:25:27 01:32:05 42° 65° (ENE) 01:38:43 435.675
BEESAT 3 27 Aug 01:31:51 01:35:51 88° 232° (SW) 01:39:47 437.485
NOAA 18 27 Aug 01:35:57 01:40:49 31° 263° (W) 01:45:43 137.9125
DOVE 4 27 Aug 01:36:44 01:41:45 58° 261° (W) 01:46:59 437.250
SEEDS 27 Aug 01:39:04 01:42:10 21° 68° (ENE) 01:45:17 437.485
CANX-2 27 Aug 01:56:52 02:00:57 55° 75° (ENE) 02:05:05 2200.000
STRAND 1 27 Aug 01:57:27 02:02:13 39° 98° (E) 02:06:58 437.568
CUTE 1.7 + AOD 2 27 Aug 02:03:13 02:07:19 56° 75° (ENE) 02:11:27 437.475
AAUSAT CUBESAT 2 27 Aug 02:13:23 02:16:50 27° 70° (ENE) 02:20:17 437.432
COMPASS 1 27 Aug 02:19:44 02:23:35 40° 73° (ENE) 02:27:28 437.405
Cosmos 2504 27 Aug 02:26:08 02:32:35 36° 273° (W) 02:38:57 435.465 / 435.565
CINEMA 3 27 Aug 02:26:38 02:31:35 61° 259° (W) 02:36:33 145.822/145.860
Oscar 11 27 Aug 02:45:06 02:48:37 25° 69° (ENE) 02:52:08 145.826/435.025
BEESAT 2 27 Aug 02:49:22 02:52:36 24° 248° (WSW) 02:55:49 435.950
FUNcube-1 27 Aug 02:50:38 02:54:25 28° 70° (ENE) 02:58:08 145.935
CUBEBUG 2 27 Aug 02:52:56 02:57:38 76° 77° (ENE) 03:02:16 437.445
UWE-3 27 Aug 02:53:24 02:57:51 50° 74° (ENE) 03:02:13 435.000/436.395/437.385
PRISM 27 Aug 02:59:09 03:01:53 17° 94° (E) 03:04:36 437.425
Cosmos 2491 27 Aug 03:04:03 03:09:39 18° 297° (WNW) 03:15:20 435.465 / 435.565
ZACube-1 27 Aug 03:10:48 03:15:08 49° 74° (ENE) 03:19:23 437.345
PCSat 27 Aug 03:11:19 03:16:22 38° 55° (NE) 03:21:22 145.827
AIST 2 27 Aug 03:12:34 03:16:02 25° 49° (NE) 03:19:30 435.215
AIST 1 27 Aug 03:12:46 03:17:11 81° 266° (W) 03:21:34
HO-68 27 Aug 03:13:16 03:19:47 37° 263° (W) 03:26:20 435.675
SEEDS 27 Aug 03:14:01 03:17:41 30° 264° (W) 03:21:22 437.485
CANX-2 27 Aug 03:35:53 03:37:08 11° 270° (W) 03:38:25 2200.000
STRAND 1 27 Aug 03:37:08 03:41:09 24° 294° (WNW) 03:45:10 437.568
CUTE 1.7 + AOD 2 27 Aug 03:42:22 03:43:29 11° 270° (W) 03:44:37 437.475
GONETS M04 27 Aug 03:45:39 03:49:23 13° 59° (ENE) 03:53:08
AAUSAT CUBESAT 2 27 Aug 03:49:03 03:52:16 22° 265° (W) 03:55:31 437.432
COMPASS 1 27 Aug 03:56:59 03:59:18 15° 268° (W) 04:01:39 437.405
DELFI C3 27 Aug 04:01:31 04:05:25 76° 76° (ENE) 04:09:22 145.870
HUMSAT D 27 Aug 04:07:35 04:11:31 41° 73° (ENE) 04:15:24 437.325/437.525
Oscar 11 27 Aug 04:21:02 04:24:39 26° 264° (W) 04:28:17 145.826/435.025
AUBIESAT-1 27 Aug 04:25:57 04:29:53 28° 64° (ENE) 04:33:50 437.475
FUNcube-1 27 Aug 04:26:53 04:30:35 25° 265° (W) 04:34:15 145.935
M-CUBED/EXP-1 PRIME 27 Aug 04:30:11 04:34:29 38° 66° (ENE) 04:38:51 437.505
ESTCUBE 1 27 Aug 04:31:58 04:34:15 14° 64° (ENE) 04:36:32 437.505/2401.250
UWE-3 27 Aug 04:32:00 04:34:32 15° 268° (W) 04:37:03 435.000/436.395/437.385
PRISM 27 Aug 04:33:27 04:37:18 37° 289° (WNW) 04:41:09 437.425
TIGRISAT 27 Aug 04:34:43 04:37:43 18° 93° (E) 04:40:41 435.000
AISAT 27 Aug 04:46:03 04:47:15 11° 62° (ENE) 04:48:27 437.250
ZACube-1 27 Aug 04:49:15 04:51:39 14° 268° (W) 04:54:01 437.345
AIST 2 27 Aug 04:50:49 04:54:33 31° 246° (WSW) 04:58:14 435.215
PCSat 27 Aug 04:54:58 04:59:36 29° 251° (WSW) 05:04:11 145.827
UNISAT 6 27 Aug 05:02:08 05:06:12 40° 98° (E) 05:10:13 437.425
50 SAT 27 Aug 05:11:57 05:14:04 15° 67° (ENE) 05:16:11 437.505
VELOX 1 27 Aug 05:30:26 05:34:20 31° 70° (ENE) 05:38:14 145.980
O/OREOS (USA 219) 27 Aug 05:32:20 05:35:54 22° 58° (ENE) 05:39:26 437.305
SO-50 27 Aug 05:33:03 05:37:11 28° 113° (ESE) 05:41:19 436.795
Cosmos 2499 27 Aug 05:33:08 05:39:53 46° 77° (ENE) 05:46:40 435.465 / 435.565
CUBEBUG 1 27 Aug 05:35:03 05:39:10 41° 72° (ENE) 05:43:20 437.445
ANTELSAT 27 Aug 05:39:01 05:43:19 74° 284° (WNW) 05:47:32 437.575/2403.000
GONETS M04 27 Aug 05:39:09 05:48:01 70° 80° (E) 05:56:49
HUMSAT D 27 Aug 05:44:54 05:47:17 15° 267° (W) 05:49:40 437.325/437.525
QB50P1 27 Aug 05:49:26 05:52:24 18° 94° (E) 05:55:21 145.935-145.965
DX 1 27 Aug 05:51:14 05:55:12 35° 70° (ENE) 05:59:12 434.975-435.025
SPROUT 27 Aug 05:58:00 06:01:45 30° 70° (ENE) 06:05:30 437.525
POPSAT HIP 1 27 Aug 05:59:00 06:02:23 23° 95° (E) 06:05:45 437.405
AUBIESAT-1 27 Aug 06:00:09 06:04:11 30° 259° (W) 06:08:16 437.475
RS-15 27 Aug 06:02:06 06:09:07 19° 97° (E) 06:16:16 29.354- 29.394
M-CUBED/EXP-1 PRIME 27 Aug 06:05:23 06:09:01 23° 261° (W) 06:12:44 437.505
CUSAT 1 27 Aug 06:05:35 06:08:21 82° 99° (E) 06:11:43 437.405
ESTCUBE 1 27 Aug 06:06:10 06:10:33 56° 260° (W) 06:14:59 437.505/2401.250
TIGRISAT 27 Aug 06:10:37 06:14:30 34° 289° (WNW) 06:18:20 435.000
AISAT 27 Aug 06:18:39 06:23:05 73° 258° (WSW) 06:27:35 437.250
TISAT 1 27 Aug 06:23:03 06:24:50 12° 64° (ENE) 06:26:37 437.305
JAS-2 27 Aug 06:23:09 06:29:09 31° 96° (E) 06:35:38 435.910
DUCHIFAT 1 27 Aug 06:27:28 06:31:31 44° 99° (E) 06:35:30 145.980
QB50P2 27 Aug 06:28:33 06:32:43 57° 101° (E) 06:36:50 145.880/145.840
POLYITAN 1 27 Aug 06:31:04 06:35:14 57° 101° (E) 06:39:21 437.675
UKube-1 27 Aug 06:33:17 06:37:36 82° 73° (ENE) 06:41:57 .
UNISAT 6 27 Aug 06:39:52 06:42:35 17° 294° (WNW) 06:45:16 437.425
NANOSAT C BR1 27 Aug 06:40:39 06:44:51 70° 101° (E) 06:49:01 145.865
50 SAT 27 Aug 06:44:12 06:47:22 30° 262° (W) 06:50:35 437.505
DANDE 27 Aug 06:53:09 06:55:44 87° 100° (E) 06:58:26 436.750
VELOX 1 27 Aug 07:07:17 07:10:47 23° 265° (W) 07:14:19 145.980
O/OREOS (USA 219) 27 Aug 07:11:10 07:15:23 37° 255° (WSW) 07:19:36 437.305
CUBEBUG 1 27 Aug 07:12:49 07:15:37 17° 267° (W) 07:18:27 437.445
SO-50 27 Aug 07:13:07 07:17:33 35° 309° (NW) 07:21:59 436.795
BEESAT 27 Aug 07:20:00 07:21:26 11° 61° (ENE) 07:22:53 436.000
QB50P1 27 Aug 07:24:27 07:28:16 34° 289° (WNW) 07:32:02 145.935-145.965
BUGSAT 1 27 Aug 07:26:48 07:30:58 88° 285° (WNW) 07:35:02 437.445
Cosmos 2499 27 Aug 07:26:51 07:32:38 28° 275° (W) 07:38:26 435.465 / 435.565
DX 1 27 Aug 07:28:19 07:31:28 19° 266° (W) 07:34:38 434.975-435.025
SPROUT 27 Aug 07:34:18 07:37:40 22° 265° (W) 07:41:04 437.525
POPSAT HIP 1 27 Aug 07:34:34 07:38:07 27° 291° (WNW) 07:41:39 437.405
GONETS M04 27 Aug 07:37:24 07:43:56 24° 279° (W) 07:50:29
PHONESAT 2.4 27 Aug 07:52:11 07:54:16 17° 150° (SSE) 07:56:22 2401.200-2431.200
TISAT 1 27 Aug 07:55:48 07:59:58 57° 259° (W) 08:04:11 437.305
Oscar 19 27 Aug 07:58:24 08:03:06 33° 97° (E) 08:07:46 437.125/150
ITUPSAT 1 27 Aug 08:03:40 08:07:49 31° 69° (ENE) 08:11:58 437.325
DUCHIFAT 1 27 Aug 08:04:25 08:06:48 15° 295° (WNW) 08:09:10 145.980
QB50P2 27 Aug 08:06:18 08:08:00 12° 296° (WNW) 08:09:42 145.880/145.840
JAS-2 27 Aug 08:07:46 08:14:15 50° 289° (WNW) 08:21:25 435.910
RS-15 27 Aug 08:08:01 08:19:29 82° 118° (ESE) 08:31:38 29.354- 29.394
POLYITAN 1 27 Aug 08:08:54 08:10:31 12° 296° (WNW) 08:12:08 437.675
NANOSAT C BR1 27 Aug 08:19:54 08:19:58 10° 298° (WNW) 08:20:03 145.865
SWISSCUBE 27 Aug 08:36:33 08:41:17 77° 75° (ENE) 08:46:03 437.505
BEESAT 27 Aug 08:53:47 08:58:32 79° 256° (WSW) 09:03:19 436.000
Gurwin Techsat 1B 27 Aug 09:01:01 09:06:18 61° 101° (E) 09:11:32 435.225
ITAMSAT 1 27 Aug 09:11:04 09:15:01 22° 94° (E) 09:18:56 435.822/435.867
MOZHAYETS 4 27 Aug 09:16:13 09:19:52 24° 68° (ENE) 09:23:31
KKS-1 27 Aug 09:17:21 09:20:36 20° 66° (ENE) 09:23:52 437.445
PHONESAT 2.4 27 Aug 09:27:19 09:30:19 73° 165° (SSE) 09:33:18 2401.200-2431.200
Oscar 19 27 Aug 09:37:53 09:42:17 28° 293° (WNW) 09:46:41 437.125/150
ITUPSAT 1 27 Aug 09:41:38 09:45:37 26° 264° (W) 09:49:36 437.325
STARS 27 Aug 09:55:15 09:58:50 24° 68° (ENE) 10:02:26 437.465
AO-7 27 Aug 10:03:17 10:10:44 35° 98° (E) 10:18:06 29.400- 29.500
RS-15 27 Aug 10:23:01 10:33:26 35° 324° (NW) 10:44:19 29.354- 29.394
CUBESAT XI-V 27 Aug 10:34:14 10:37:36 21° 67° (ENE) 10:41:00 437.345
Gurwin Techsat 1B 27 Aug 10:42:21 10:45:43 17° 298° (WNW) 10:49:04 435.225
ITAMSAT 1 27 Aug 10:49:45 10:54:37 43° 290° (WNW) 10:59:29 435.822/435.867
KKS-1 27 Aug 10:52:45 10:56:54 37° 262° (W) 11:01:05 437.445
MOZHAYETS 4 27 Aug 10:52:51 10:56:53 31° 264° (W) 11:00:56
PHONESAT 2.4 27 Aug 11:03:44 11:06:43 66° 2° (N) 11:09:42 2401.200-2431.200
AO-85 27 Aug 11:11:04 11:15:36 29° 113° (ESE) 11:19:58 145.980
Cosmos 2491 27 Aug 11:14:46 11:23:04 43° 74° (ENE) 11:31:20 435.465 / 435.565
STARS 27 Aug 11:31:11 11:35:02 29° 263° (W) 11:38:55 437.465
NOAA 15 27 Aug 11:51:34 11:52:37 11° 89° (E) 11:53:40 137.62
AO-7 27 Aug 11:55:44 12:03:39 51° 296° (WNW) 12:11:32 29.400- 29.500
HORYU 2 27 Aug 12:06:45 12:11:09 66° 102° (ESE) 12:15:31 437.375
BRITE-PL 27 Aug 12:08:56 12:14:04 33° 95° (E) 12:19:03 437.365/2234.400
CUBESAT XI-V 27 Aug 12:10:27 12:14:42 38° 262° (W) 12:19:01 437.345
NOAA 18 27 Aug 12:19:40 12:22:35 15° 91° (E) 12:25:30 137.9125
YUBILEINY 27 Aug 12:27:16 12:35:44 53° 90° (E) 12:44:12 435.215
PHONESAT 2.4 27 Aug 12:40:08 12:43:06 63° 197° (SSW) 12:46:04 2401.200-2431.200
RS-15 27 Aug 12:43:07 12:51:18 20° 358° (N) 12:59:36 29.354- 29.394
AO-85 27 Aug 12:51:01 12:55:58 39° 307° (NW) 13:00:40 145.980
LilacSat-2 27 Aug 12:51:43 12:55:05 30° 97° (E) 12:58:26 437.200
Cosmos 2504 27 Aug 13:09:09 13:16:34 35° 87° (E) 13:23:34 435.465 / 435.565
Cosmos 2491 27 Aug 13:11:46 13:19:47 41° 273° (W) 13:27:47 435.465 / 435.565
Cubesat XI-IV 27 Aug 13:12:00 13:17:13 53° 100° (E) 13:22:23 437.490
STRAND 1 27 Aug 13:12:11 13:17:06 51° 72° (ENE) 13:22:02 437.568
CUTE-I 27 Aug 13:24:02 13:29:21 70° 102° (ESE) 13:34:38 437.470
GOMX 1 27 Aug 13:26:42 13:32:10 81° 103° (ESE) 13:37:19 467.674
NOAA 15 27 Aug 13:27:40 13:33:00 85° 284° (WNW) 13:38:20 137.62
DOVE 4 27 Aug 13:37:12 13:42:04 45° 98° (E) 13:46:38 437.250
HORYU 2 27 Aug 13:45:35 13:47:07 12° 298° (WNW) 13:48:41 437.375
CANX-2 27 Aug 13:45:52 13:46:23 10° 90° (E) 13:46:55 2200.000
BRITE-PL 27 Aug 13:47:21 13:52:24 34° 291° (WNW) 13:57:23 437.365/2234.400
PRISM 27 Aug 13:49:18 13:50:30 11° 63° (ENE) 13:51:42 437.425
CUTE 1.7 + AOD 2 27 Aug 13:51:54 13:52:39 10° 90° (E) 13:53:24 437.475
AO-7 27 Aug 13:53:01 13:54:26 11° 317° (NW) 13:55:52 29.400- 29.500
NOAA 18 27 Aug 13:58:17 14:03:44 68° 287° (WNW) 14:09:07 137.9125
SO-50 27 Aug 14:05:30 14:09:01 21° 45° (NE) 14:12:26 436.795
PHONESAT 2.4 27 Aug 14:17:23 14:19:05 14° 212° (SSW) 14:20:46 2401.200-2431.200
CINEMA 3 27 Aug 14:23:09 14:27:17 34° 96° (E) 14:31:13 145.822/145.860
YUBILEINY 27 Aug 14:25:07 14:32:48 33° 289° (WNW) 14:40:35 435.215
LilacSat-2 27 Aug 14:26:43 14:29:08 17° 292° (WNW) 14:31:34 437.200
HO-68 27 Aug 14:41:18 14:48:11 47° 100° (E) 14:54:59 435.675
CUBEBUG 2 27 Aug 14:46:25 14:48:59 16° 92° (E) 14:51:30 437.445
Cubesat XI-IV 27 Aug 14:53:08 14:56:51 20° 297° (WNW) 15:00:34 437.490
STRAND 1 27 Aug 14:53:09 14:56:32 18° 267° (W) 14:59:56 437.568
SEEDS 27 Aug 14:58:15 15:02:17 44° 99° (E) 15:06:19 437.485
CUTE-I 27 Aug 15:05:49 15:08:47 15° 299° (WNW) 15:11:44 437.470
GOMX 1 27 Aug 15:06:52 15:09:25 14° 299° (WNW) 15:11:55 467.674
